| time (UTC) | temp C | wind direction | speed KPH | gust KPH | rain 1hr cm | rain 24hr cm | rain mn cm | humidity % | barometer mb |
| 20260503225504 | 13 | 293 | 0.0 | 0.0 | 0.00 | 0.00 | 0.00 | 63 | 1014.7 |
| 20260503224504 | 13 | 293 | 0.0 | 0.0 | 0.00 | 0.00 | 0.00 | 63 | 1014.8 |
| 20260503223504 | 13 | 293 | 0.0 | 0.0 | 0.00 | 0.00 | 0.00 | 62 | 1014.7 |
| 20260503222504 | 13 | 293 | 0.0 | 0.0 | 0.00 | 0.00 | 0.00 | 61 | 1014.6 |
| 20260503221503 | 13 | 293 | 0.0 | 0.0 | 0.00 | 0.00 | 0.00 | 60 | 1014.4 |
| 20260503220503 | 14 | 293 | 0.0 | 1.6 | 0.00 | 0.00 | 0.00 | 59 | 1014.3 |
| 20260503215503 | 14 | 293 | 0.0 | 1.6 | 0.00 | 0.00 | 0.00 | 59 | 1014.2 |
| 20260503214503 | 14 | 293 | 0.0 | 0.0 | 0.00 | 0.00 | 0.00 | 58 | 1014.3 |
| 20260503213505 | 14 | 293 | 0.0 | 1.6 | 0.00 | 0.00 | 0.00 | 57 | 1014.2 |
| 20260503212505 | 15 | 293 | 0.0 | 0.0 | 0.00 | 0.00 | 0.00 | 56 | 1014.0 |
| 20260503211505 | 15 | 293 | 0.0 | 1.6 | 0.00 | 0.00 | 0.00 | 55 | 1014.0 |
| 20260503210505 | 15 | 293 | 0.0 | 1.6 | 0.00 | 0.00 | 0.00 | 54 | 1013.9 |
| 20260503205504 | 16 | 293 | 0.0 | 1.6 | 0.00 | 0.00 | 0.00 | 53 | 1013.7 |
| 20260503204504 | 16 | 293 | 0.0 | 1.6 | 0.00 | 0.00 | 0.00 | 52 | 1013.5 |
| 20260503203504 | 16 | 293 | 0.0 | 1.6 | 0.00 | 0.00 | 0.00 | 52 | 1013.4 |
| 20260503202504 | 16 | 293 | 1.6 | 1.6 | 0.00 | 0.00 | 0.00 | 51 | 1013.2 |
| 20260503201504 | 17 | 293 | 1.6 | 3.2 | 0.00 | 0.00 | 0.00 | 50 | 1013.1 |
| 20260503200504 | 17 | 314 | 0.0 | 4.8 | 0.00 | 0.00 | 0.00 | 50 | 1012.9 |
| 20260503195504 | 17 | 313 | 1.6 | 11.3 | 0.00 | 0.00 | 0.00 | 52 | 1012.8 |
| 20260503194504 | 18 | 293 | 3.2 | 8.0 | 0.00 | 0.00 | 0.00 | 57 | 1012.8 |
| 20260503193504 | 18 | 314 | 0.0 | 1.6 | 0.00 | 0.00 | 0.00 | 57 | 1012.4 |
| 20260503192504 | 18 | 314 | 1.6 | 4.8 | 0.00 | 0.00 | 0.00 | 55 | 1012.3 |
| 20260503191503 | 18 | 300 | 0.0 | 1.6 | 0.00 | 0.00 | 0.00 | 54 | 1012.2 |
| 20260503190503 | 19 | 295 | 0.0 | 1.6 | 0.00 | 0.00 | 0.00 | 53 | 1012.0 |
| 20260503185503 | 19 | 285 | 0.0 | 4.8 | 0.00 | 0.00 | 0.00 | 52 | 1011.8 |
| 20260503184503 | 20 | 281 | 0.0 | 4.8 | 0.00 | 0.00 | 0.00 | 52 | 1011.6 |
| 20260503183503 | 20 | 353 | 3.2 | 6.4 | 0.00 | 0.00 | 0.00 | 51 | 1011.5 |
| 20260503182505 | 20 | 320 | 1.6 | 3.2 | 0.00 | 0.00 | 0.00 | 50 | 1011.4 |
| 20260503181505 | 20 | 310 | 0.0 | 3.2 | 0.00 | 0.00 | 0.00 | 49 | 1011.4 |
| 20260503180505 | 20 | 340 | 0.0 | 4.8 | 0.00 | 0.00 | 0.00 | 48 | 1011.2 |
| 20260503175505 | 21 | 335 | 0.0 | 4.8 | 0.00 | 0.00 | 0.00 | 47 | 1011.2 |
| 20260503174505 | 21 | 346 | 1.6 | 4.8 | 0.00 | 0.00 | 0.00 | 46 | 1011.4 |
| 20260503173504 | 21 | 346 | 1.6 | 4.8 | 0.00 | 0.00 | 0.00 | 45 | 1011.4 |
| 20260503172504 | 22 | 334 | 3.2 | 4.8 | 0.00 | 0.00 | 0.00 | 43 | 1011.6 |
| 20260503171504 | 22 | 218 | 4.8 | 9.7 | 0.00 | 0.00 | 0.00 | 40 | 1011.4 |
| 20260503170504 | 22 | 164 | 3.2 | 8.0 | 0.00 | 0.00 | 0.00 | 34 | 1011.2 |
| 20260503150505 | 26 | 237 | 1.6 | 6.4 | 0.00 | 0.00 | 0.00 | 30 | 1011.2 |
| 20260503130503 | 23 | 269 | 1.6 | 4.8 | 0.00 | 0.00 | 0.00 | 38 | 1012.3 |
| 20260503110503 | 23 | 45 | 1.6 | 8.0 | 0.00 | 0.00 | 0.00 | 35 | 1013.3 |
| 20260503090504 | 21 | 16 | 0.0 | 3.2 | 0.00 | 0.00 | 0.00 | 47 | 1014.7 |
| 20260503081503 | 18 | 201 | 1.6 | 3.2 | 0.00 | 0.00 | 0.00 | 63 | 1014.9 |
| 20260503080503 | 17 | 189 | 1.6 | 4.8 | 0.00 | 0.00 | 0.00 | 64 | 1015.0 |
| 20260503072504 | 15 | 129 | 3.2 | 4.8 | 0.00 | 0.00 | 0.00 | 69 | 1015.0 |
| 20260503071503 | 14 | 92 | 0.0 | 0.0 | 0.00 | 0.00 | 0.00 | 70 | 1015.0 |
| 20260503070503 | 14 | 92 | 0.0 | 3.2 | 0.00 | 0.00 | 0.00 | 70 | 1015.1 |
| 20260503054504 | 10 | 64 | 0.0 | 1.6 | 0.00 | 0.00 | 0.00 | 81 | 1015.2 |
| 20260503053504 | 8 | 63 | 0.0 | 0.0 | 0.00 | 0.00 | 0.00 | 81 | 1015.1 |
| 20260503052504 | 8 | 63 | 0.0 | 0.0 | 0.00 | 0.00 | 0.00 | 83 | 1015.2 |
| 20260503051504 | 7 | 63 | 0.0 | 0.0 | 0.00 | 0.00 | 0.00 | 84 | 1015.1 |
| 20260503050504 | 7 | 63 | 0.0 | 0.0 | 0.00 | 0.00 | 0.00 | 84 | 1015.2 |
| 20260503045504 | 7 | 63 | 0.0 | 0.0 | 0.00 | 0.00 | 0.00 | 85 | 1015.2 |
| 20260503044504 | 7 | 63 | 0.0 | 0.0 | 0.00 | 0.00 | 0.00 | 84 | 1015.2 |
| 20260503043503 | 7 | 63 | 0.0 | 0.0 | 0.00 | 0.00 | 0.00 | 84 | 1015.2 |
| 20260503042504 | 7 | 63 | 0.0 | 0.0 | 0.00 | 0.00 | 0.00 | 84 | 1015.3 |
| 20260503041504 | 7 | 63 | 0.0 | 0.0 | 0.00 | 0.00 | 0.00 | 84 | 1015.1 |
| 20260503040504 | 7 | 63 | 0.0 | 0.0 | 0.00 | 0.00 | 0.00 | 83 | 1015.1 |
| 20260503035504 | 7 | 63 | 0.0 | 0.0 | 0.00 | 0.00 | 0.00 | 83 | 1015.2 |
| 20260503034504 | 7 | 63 | 0.0 | 0.0 | 0.00 | 0.00 | 0.00 | 82 | 1015.2 |
| 20260503033504 | 7 | 63 | 0.0 | 0.0 | 0.00 | 0.00 | 0.00 | 81 | 1015.1 |
| 20260503032503 | 7 | 63 | 0.0 | 0.0 | 0.00 | 0.00 | 0.00 | 81 | 1015.1 |
| 20260503031503 | 7 | 63 | 0.0 | 0.0 | 0.00 | 0.00 | 0.00 | 80 | 1015.0 |
| 20260503030504 | 8 | 63 | 0.0 | 0.0 | 0.00 | 0.00 | 0.00 | 80 | 1015.1 |
| 20260503025504 | 8 | 63 | 0.0 | 0.0 | 0.00 | 0.00 | 0.00 | 79 | 1015.2 |
| 20260503024504 | 8 | 63 | 0.0 | 0.0 | 0.00 | 0.00 | 0.00 | 79 | 1015.0 |
| 20260503023504 | 8 | 63 | 0.0 | 0.0 | 0.00 | 0.00 | 0.00 | 78 | 1015.2 |
| 20260503022504 | 8 | 63 | 0.0 | 0.0 | 0.00 | 0.00 | 0.00 | 78 | 1015.2 |
| 20260503021504 | 8 | 63 | 0.0 | 0.0 | 0.00 | 0.00 | 0.00 | 78 | 1015.4 |
| 20260503020504 | 8 | 63 | 0.0 | 0.0 | 0.00 | 0.00 | 0.00 | 77 | 1015.4 |
| 20260503015504 | 9 | 63 | 0.0 | 0.0 | 0.00 | 0.00 | 0.00 | 77 | 1015.4 |
| 20260503014504 | 9 | 63 | 0.0 | 0.0 | 0.00 | 0.00 | 0.00 | 77 | 1015.4 |
| 20260503013504 | 9 | 63 | 0.0 | 0.0 | 0.00 | 0.00 | 0.00 | 76 | 1015.5 |
| 20260503012504 | 9 | 63 | 0.0 | 0.0 | 0.00 | 0.00 | 0.00 | 76 | 1015.3 |
| 20260503011504 | 10 | 63 | 0.0 | 0.0 | 0.00 | 0.00 | 0.00 | 76 | 1015.5 |
| 20260503010504 | 10 | 63 | 0.0 | 0.0 | 0.00 | 0.00 | 0.00 | 76 | 1015.5 |
| 20260503005504 | 9 | 63 | 0.0 | 1.6 | 0.00 | 0.00 | 0.00 | 77 | 1015.6 |
| 20260503004504 | 9 | 63 | 0.0 | 0.0 | 0.00 | 0.00 | 0.00 | 77 | 1015.6 |
| 20260503003503 | 9 | 63 | 0.0 | 0.0 | 0.00 | 0.00 | 0.00 | 77 | 1015.6 |
| 20260503002503 | 10 | 63 | 0.0 | 0.0 | 0.00 | 0.00 | 0.00 | 76 | 1015.8 |
| 20260503001503 | 10 | 63 | 0.0 | 0.0 | 0.00 | 0.00 | 0.00 | 76 | 1015.6 |
| 20260503000503 | 10 | 63 | 0.0 | 0.0 | 0.00 | 0.00 | 0.00 | 76 | 1015.8 |
| 20260502235503 | 10 | 63 | 0.0 | 0.0 | 0.00 | 0.00 | 0.00 | 76 | 1015.7 |
| 20260502234503 | 10 | 63 | 0.0 | 0.0 | 0.00 | 0.00 | 0.00 | 75 | 1015.8 |
| 20260502233503 | 10 | 63 | 0.0 | 0.0 | 0.00 | 0.00 | 0.00 | 76 | 1015.9 |
| 20260502232503 | 10 | 63 | 0.0 | 0.0 | 0.00 | 0.00 | 0.00 | 75 | 1015.9 |
| 20260502231503 | 10 | 63 | 0.0 | 0.0 | 0.00 | 0.00 | 0.00 | 75 | 1016.1 |
| 20260502230502 | 11 | 63 | 0.0 | 0.0 | 0.00 | 0.00 | 0.00 | 74 | 1016.1 |